CLT TRACON Summary / KCLT TAF
CLT TRACON Summary:
High pressure continues to build over the Carolinas. Expect VFR conditions with FEW/SCT050-080 clouds. Surface winds will be from the northwest to north at 5-10kts. Hazards: Expect LGT-MOD turbulence below 100 in the TRACON airspace until 03z.

Updated:7/28/2014 7:45 PM
CLT Terminal Aerodrome Forecast:

FTUS42 KGSP 282300
TAFCLT
TAF
KCLT 282333Z 2900/2924 32008KT P6SM FEW250
     FM290800 36004KT P6SM FEW250
     FM292000 35004KT P6SM FEW070=
CLT TRACON Area Remark:
NONE.
Convective Gate Forecast / Collaborative Convective Forecast Product / Vertical Wind Profile
Convective Gate Forecast
-->
AIRMETs & SIGMETS/ Southeast Radar loop / Satellite Image (click on image to enlarge)

Southeast Radar Loop

 



USA.gov is the U.S. government's official web portal to all federal, state and local government web resources and services.